This is the latest recevied weather packets stored in our database for station/object KA1AL. If no packets are shown the sender has not sent any weather packets the latest 10 day(s).
| Time | Temp. | Humidity | Pressure | Rain* | Wind** | Luminosity | Snow |
|---|---|---|---|---|---|---|---|
| 1778117730 | 9.44° C | 99% | 1003.6 hPa | 9.65 mm | - | 0 W/m² | - |
| 1778117427 | 9.44° C | 99% | 1003.6 hPa | 7.87 mm | - | 0 W/m² | - |
| 1778117124 | 9.44° C | 99% | 1004.1 hPa | 7.87 mm | - | 0 W/m² | - |
| 1778116820 | 10° C | 99% | 1003.9 hPa | 11.94 mm | - | 0 W/m² | - |
| 1778116519 | 10.56° C | 99% | 1004.1 hPa | 11.94 mm | - | 0 W/m² | - |
| 1778116214 | 11.67° C | 99% | 1004.1 hPa | 8.89 mm | - | 0 W/m² | - |
| 1778115908 | 11.67° C | 99% | 1004.4 hPa | 8.89 mm | - | 0 W/m² | - |
| 1778115605 | 11.67° C | 99% | 1004.1 hPa | 6.1 mm | - | 0 W/m² | - |
| 1778115303 | 11.67° C | 99% | 1004 hPa | 4.83 mm | - | 0 W/m² | - |
| 1778115000 | 11.67° C | 99% | 1003.9 hPa | 4.83 mm | - | 0 W/m² | - |
| 1778114696 | 11.67° C | 99% | 1003.8 hPa | 4.83 mm | - | 0 W/m² | - |
| 1778114394 | 11.67° C | 99% | 1004.1 hPa | 4.32 mm | - | 0 W/m² | - |
| 1778114088 | 11.67° C | 99% | 1003.8 hPa | 3.05 mm | - | 0 W/m² | - |
| 1778113784 | 11.67° C | 99% | 1003.9 hPa | 3.05 mm | - | 0 W/m² | - |
| 1778113480 | 11.67° C | 99% | 1003.8 hPa | 1.78 mm | - | 0 W/m² | - |
| 1778113177 | 11.67° C | 99% | 1003.8 hPa | 0 mm | - | 0 W/m² | - |
| 1778112874 | 11.67° C | 99% | 1004.2 hPa | 0 mm | - | 0 W/m² | - |
| 1778112572 | 11.67° C | 99% | 1004 hPa | 0 mm | - | 0 W/m² | - |
| 1778112267 | 11.67° C | 99% | 1003.8 hPa | 0 mm | - | 0 W/m² | - |
| 1778111963 | 11.67° C | 99% | 1003.8 hPa | 1.27 mm | - | 0 W/m² | - |
| 1778111661 | 11.67° C | 99% | 1004 hPa | 1.27 mm | - | 0 W/m² | - |
| 1778111355 | 11.67° C | 99% | 1004 hPa | 0 mm | - | 0 W/m² | - |
| 1778111054 | 11.67° C | 99% | 1004.2 hPa | 1.78 mm | - | 0 W/m² | - |
| 1778110751 | 11.67° C | 99% | 1004 hPa | 1.78 mm | - | 0 W/m² | - |
| 1778110447 | 11.67° C | 99% | 1004.1 hPa | 0 mm | - | 0 W/m² | - |
* Rain latest hour (hover to see other rain measurements)
** Current wind speed in m/s (hover to see current wind gust speed)